Theta_e
328 329 326 325 325 327 326 326 328 327 327 328 327 327 327 323 320 322 325 326 324 326 327 327 328 329 328 327 325 321 322 320 322
330 329 328 326 328 327 326 326 326 326 327 327 326 326 326 325 320 320 324 325 325 326 325 326 325 326 325 325 325 321 321 320 321
331 331 329 328 328 327 327 327 327 327 326 325 326 325 325 325 325 320 321 323 326 325 326 326 325 324 324 323 323 322 320 320 321
332 331 329 329 329 328 327 327 327 328 327 326 326 325 324 325 325 324 319 320 324 326 326 327 326 325 324 324 322 323 322 320 320
330 329 329 329 329 329 326 326 326 327 327 326 325 323 323 324 325 324 323 319 319 326 326 327 326 326 325 325 323 322 323 322 321
328 328 326 325 325 328 327 327 326 326 325 324 323 321 320 321 321 322 322 321 321 322 325 326 327 327 326 325 325 324 322 323 322
327 327 326 326 326 324 324 325 326 325 326 325 323 322 321 319 319 319 315 317 323 322 322 324 326 327 327 326 325 325 324 323 322
326 325 325 325 325 325 324 322 324 324 325 325 324 322 321 319 318 317 314 311 319 323 323 322 324 325 326 327 327 325 325 325 323
324 325 325 325 325 325 324 324 323 323 323 324 324 323 322 321 320 319 317 316 313 316 320 322 321 323 325 327 327 327 325 324 324
326 326 325 324 325 326 325 325 325 325 325 325 324 324 323 322 321 321 320 319 318 317 317 318 321 321 322 325 327 329 329 326 324
328 327 327 326 326 326 326 326 325 325 325 324 324 324 323 323 323 322 322 322 321 320 319 321 320 322 323 322 324 326 329 329 327
329 328 327 327 327 326 325 325 325 324 324 323 323 323 323 323 324 324 324 323 323 323 321 322 324 323 323 324 322 323 326 329 329
328 328 328 328 327 327 326 324 324 324 323 322 324 323 322 323 325 325 326 326 326 326 326 326 324 324 325 324 324 324 324 324 327
330 329 330 328 327 326 324 324 323 323 324 324 324 324 322 322 322 321 322 323 324 323 324 325 325 325 324 325 326 325 325 325 326
326 323 320 320 321 323 323 323 323 323 323 323 322 324 324 324 323 322 322 321 322 323 322 322 320 323 324 323 325 326 327 327 326
309 309 309 309 314 315 316 318 320 321 323 323 322 323 324 325 325 325 323 323 325 322 322 323 322 322 324 324 324 324 326 326 327
306 305 305 304 305 306 309 311 312 313 315 320 321 325 323 324 325 325 325 325 324 323 323 322 321 321 321 322 325 324 324 324 326
304 303 302 302 303 305 306 308 308 309 310 312 314 319 319 317 315 320 322 325 323 323 323 323 324 322 321 323 324 325 325 325 324
300 300 299 299 300 302 304 304 305 306 308 308 310 311 312 315 316 312 314 315 320 319 320 321 321 321 321 322 323 324 324 325 324
295 294 295 297 299 300 301 302 303 304 305 306 307 308 309 310 314 314 312 312 312 313 314 316 318 320 321 321 321 322 323 324 324
Wind_Speed
3 6 7 7 7 5 6 6 8 8 8 9 9 10 9 12 12 11 9 10 11 11 11 11 13 12 11 11 10 9 9 8 9
6 9 8 6 6 6 7 8 9 9 11 11 12 13 14 13 15 13 13 14 13 13 13 13 15 15 14 14 13 11 11 10 11
10 10 8 6 6 7 9 10 10 10 11 12 13 15 14 17 17 17 15 18 18 15 15 16 15 15 15 14 14 13 13 12 13
7 8 10 10 8 9 11 13 12 12 12 13 14 15 16 16 17 19 18 17 19 18 17 18 18 18 17 17 17 16 16 16 16
10 10 12 13 13 12 13 14 15 14 14 14 16 17 18 17 18 19 19 21 20 19 20 20 21 20 20 20 19 19 19 19 19
14 15 16 16 16 14 14 15 16 18 19 19 19 19 17 18 19 20 22 24 22 21 22 23 23 23 23 23 23 23 22 22 22
16 16 16 17 17 17 17 17 18 18 16 17 20 18 19 19 20 21 26 26 24 25 25 25 26 27 27 26 26 26 26 25 26
17 18 18 19 19 20 20 19 18 19 20 20 20 22 23 22 23 25 28 28 26 26 27 28 29 29 30 31 29 29 29 29 29
18 19 20 21 22 22 22 23 23 25 25 25 26 26 26 26 27 28 29 28 28 28 29 30 31 32 32 33 35 34 34 34 34
19 20 21 23 24 24 25 25 26 27 26 27 27 28 28 28 30 32 34 31 31 31 30 31 32 33 34 35 37 38 38 38 38
21 23 23 25 25 26 26 24 23 23 22 26 25 29 29 31 31 32 35 38 35 34 34 32 33 34 36 38 39 40 41 41 42
22 24 25 25 26 27 25 25 24 24 23 23 24 25 26 27 29 30 33 35 38 38 38 35 35 36 37 38 41 42 43 42 44
20 21 23 23 23 23 22 20 20 20 20 22 25 22 24 27 29 29 31 33 34 37 38 37 39 38 38 39 40 43 45 46 45
15 16 18 18 18 18 18 17 16 20 21 22 25 24 25 26 27 28 30 33 36 37 38 40 39 39 41 41 42 45 47 48 49
11 12 13 15 15 15 15 17 17 20 23 26 27 25 25 24 26 27 28 28 32 34 33 34 32 36 37 39 40 44 47 49 50
19 18 18 18 16 16 16 16 18 19 19 19 19 18 24 25 23 26 25 27 32 30 31 34 33 33 37 38 38 38 40 45 48
19 19 19 19 18 19 18 17 18 17 20 15 20 7 17 21 18 24 27 28 30 30 31 30 30 32 32 36 39 40 41 40 41
19 19 19 19 19 17 17 17 17 16 19 17 10 7 7 12 22 23 28 22 20 22 25 32 33 33 32 37 40 42 44 45 42
21 22 22 22 20 20 19 19 19 19 18 20 14 21 22 10 13 15 25 27 22 28 29 27 29 30 32 35 40 43 44 45 41
22 22 21 20 17 17 18 19 20 17 18 18 20 20 20 20 11 17 12 27 26 28 31 31 30 30 30 34 37 39 39 40 37
Wind_Direction
303 251 268 293 296 280 289 295 285 292 297 287 281 278 276 264 265 264 263 237 248 252 254 246 245 245 246 245 246 240 230 232 224
280 260 275 287 278 284 281 289 294 293 288 287 280 281 281 276 278 266 254 249 257 260 255 253 254 252 251 247 245 240 235 230 226
271 256 264 280 288 294 287 286 289 292 295 290 282 281 280 280 280 272 270 262 256 255 257 255 257 254 252 251 247 243 238 234 231
248 253 281 292 297 294 296 294 298 295 293 291 288 282 277 274 277 280 271 270 262 261 264 261 259 258 257 253 246 243 240 236 234
264 269 278 288 295 296 298 291 288 291 290 289 287 286 285 275 275 277 271 270 269 265 263 263 260 257 256 254 250 246 244 241 241
272 272 281 289 291 293 290 290 291 290 290 289 292 292 284 283 278 276 277 276 270 267 261 262 262 259 255 254 252 250 246 244 242
273 280 284 290 293 291 290 284 283 285 282 287 291 288 287 283 279 276 279 276 270 266 263 261 260 261 258 254 253 250 249 247 245
278 283 289 293 297 296 295 291 284 283 283 283 283 288 289 284 282 280 282 278 271 267 264 261 260 260 258 255 251 251 249 248 247
284 292 297 296 299 296 296 294 292 289 289 285 284 284 286 284 283 283 284 279 274 265 262 260 259 258 257 255 251 248 247 247 246
297 301 302 301 302 302 301 298 296 294 292 289 286 287 286 286 284 285 287 284 279 273 263 258 256 255 254 253 253 251 246 243 242
300 305 308 309 310 312 307 303 300 297 293 292 289 290 288 288 286 284 286 286 282 278 273 261 257 256 255 253 252 252 253 247 242
306 307 310 312 316 317 314 311 306 302 299 292 293 293 290 287 288 284 283 283 284 281 277 268 260 257 256 254 253 252 253 251 244
312 311 312 317 316 315 312 307 304 301 297 297 298 290 286 287 285 283 281 282 282 281 279 273 269 260 256 255 255 253 252 252 252
320 322 324 324 321 321 317 313 306 306 306 302 299 294 287 284 284 278 276 276 278 275 277 280 276 270 266 256 253 252 251 251 250
14 10 4 358 350 344 340 326 322 309 310 309 301 300 295 289 283 282 282 278 278 278 275 277 275 279 275 268 258 254 253 252 252
50 41 30 22 17 8 3 352 339 330 326 303 305 295 286 282 281 284 282 284 283 278 276 278 275 273 277 278 275 265 258 255 254
37 31 25 18 11 7 6 3 352 337 342 327 315 309 309 301 314 301 289 286 281 283 280 278 276 275 274 278 284 282 276 266 259
29 24 19 14 12 6 0 356 355 338 334 339 318 318 311 317 302 301 288 291 297 291 286 290 290 284 277 283 286 287 284 279 267
21 17 13 10 6 2 357 350 348 344 335 334 325 315 309 314 309 300 306 296 303 303 298 294 287 283 284 286 288 288 287 287 279
18 16 13 10 6 1 356 350 346 343 333 328 324 319 318 315 310 310 317 303 300 296 292 289 291 291 281 274 278 286 291 291 282